"Pseudo-MPEC" for TF26F43

Created 2026 Jun 17 18:35:09 UT using Find_Orb

Click here for an explanation of pseudo-MPECs

 
 Astrometry: 
     TF26F43* C2026 06 13.30917616 29 06.637-12 08 21.42   ~6D85 18.56GVNEOCPU74
     TF26F43  C2026 06 13.31251716 29 27.090-12 08 15.85   ~6D85 18.56GVNEOCPU74
     TF26F43  C2026 06 13.34101516 32 22.919-12 07 20.63   ~6D9o 18.47GVNEOCPU74
     TF26F43  C2026 06 13.34435616 32 43.800-12 07 13.91   ~6D9o 18.47GVNEOCPU74

Station data:
(U74) JPL SynTrack Robotic Telescope 2, Auberry  (N37.070341 W119.412800)
   US/California.  Observers N. Saini, C. Zhai, R. Trahan, M. Zhan, M. Shao.
   0.36-m f/2.2 Schmidt.

Orbital elements:  TF26F43
   Perihelion 2026 Jun 17.475348 +/- 18.1 TT = 11:24:30.1 (JD 2461208.975348)
Epoch 2026 Jun 13.0 TT = JDT 2461204.5   Earth MOID: 0.0072   Ma: 0.0675
M 358.736666548 +/- 10              (J2000 ecliptic)             AutoNEOCP
n   0.282287169 +/- 0.252           Peri.    9.473386 +/- 70
a   2.301487512 +/- 1.37            Node   257.308390 +/- 60
e   0.55573165 +/- 0.259            Incl.    1.087126 +/- 0.9
P   3.49151                H 28.16  G  0.15   U 11.8  SR
q 1.022478050 +/- 0.0155    Q 3.580496975 +/- 30.6
From 4 observations 2026 June 13 (50.7 min); mean residual 0".46
Residuals in arcseconds: 
260613 U74  .22+  .00     260613 U74  .88-  .30+    
260613 U74  .15-  .03-    260613 U74  .81+  .26-    

Ephemerides (geocentric):
Date (UTC) HH   RA             Dec           delta  r     elong  mag " sig PA
---- --------  ------------   ------------  ------ ------ -----  --- --------
2026 06 17 19  22 13 11.045   +00 07 49.24  .01788 1.0224 110.6 21.9  33d 101
2026 06 17 20  22 14 11.020   +00 10 57.98  .01804 1.0224 110.4 21.9  33d 101
2026 06 17 21  22 15 09.932   +00 14 03.31  .01820 1.0224 110.2 21.9  33d 101
2026 06 17 22  22 16 07.805   +00 17 05.33  .01836 1.0224 110.0 22.0  34d 101
2026 06 17 23  22 17 04.664   +00 20 04.11  .01852 1.0224 109.8 22.0  34d 101
2026 06 18 00  22 18 00.534   +00 22 59.73  .01868 1.0224 109.6 22.0  34d 101
2026 06 18 01  22 18 55.439   +00 25 52.25  .01884 1.0224 109.4 22.0  34d 101
2026 06 18 02  22 19 49.401   +00 28 41.76  .01900 1.0224 109.2 22.1  34d 101
2026 06 18 03  22 20 42.444   +00 31 28.31  .01917 1.0224 109.0 22.1  34d 101
2026 06 18 04  22 21 34.588   +00 34 11.99  .01933 1.0224 108.9 22.1  34d 101
2026 06 18 05  22 22 25.854   +00 36 52.84  .01949 1.0224 108.7 22.1  34d 101
2026 06 18 06  22 23 16.263   +00 39 30.95  .01966 1.0224 108.5 22.1  34d 101
2026 06 18 07  22 24 05.836   +00 42 06.36  .01982 1.0224 108.4 22.2  34d 101
2026 06 18 08  22 24 54.591   +00 44 39.15  .01998 1.0224 108.2 22.2  34d 101
2026 06 18 09  22 25 42.546   +00 47 09.37  .02015 1.0224 108.0 22.2  34d 101
2026 06 18 10  22 26 29.721   +00 49 37.08  .02031 1.0224 107.9 22.2  34d 101
2026 06 18 11  22 27 16.133   +00 52 02.33  .02048 1.0224 107.7 22.3  34d 101
2026 06 18 12  22 28 01.799   +00 54 25.18  .02064 1.0224 107.6 22.3  34d 101
2026 06 18 13  22 28 46.736   +00 56 45.69  .02081 1.0224 107.4 22.3  34d 101
2026 06 18 14  22 29 30.961   +00 59 03.90  .02097 1.0224 107.3 22.3  34d 101
2026 06 18 15  22 30 14.488   +01 01 19.86  .02114 1.0224 107.1 22.3  34d 101
2026 06 18 16  22 30 57.334   +01 03 33.63  .02130 1.0224 107.0 22.4  34d 101
2026 06 18 17  22 31 39.513   +01 05 45.25  .02147 1.0225 106.9 22.4  34d 101
2026 06 18 18  22 32 21.040   +01 07 54.77  .02163 1.0225 106.7 22.4  34d 101
2026 06 18 19  22 33 01.930   +01 10 02.23  .02180 1.0225 106.6 22.4  34d 101
2026 06 18 20  22 33 42.195   +01 12 07.68  .02197 1.0225 106.5 22.5  34d 101
2026 06 18 21  22 34 21.850   +01 14 11.17  .02213 1.0225 106.4 22.5  34d 101
2026 06 18 22  22 35 00.907   +01 16 12.73  .02230 1.0225 106.2 22.5  34d 101
2026 06 18 23  22 35 39.379   +01 18 12.40  .02247 1.0225 106.1 22.5  34d 101
2026 06 19 00  22 36 17.279   +01 20 10.23  .02263 1.0225 106.0 22.5  34d 101
2026 06 19 01  22 36 54.618   +01 22 06.25  .02280 1.0225 105.9 22.6  34d 101
2026 06 19 02  22 37 31.408   +01 24 00.50  .02297 1.0225 105.8 22.6  34d 101
2026 06 19 03  22 38 07.661   +01 25 53.01  .02314 1.0225 105.7 22.6  34d 101
2026 06 19 04  22 38 43.388   +01 27 43.84  .02331 1.0225 105.5 22.6  34d 101
2026 06 19 05  22 39 18.599   +01 29 33.00  .02347 1.0226 105.4 22.6  34d 101
2026 06 19 06  22 39 53.306   +01 31 20.53  .02364 1.0226 105.3 22.6  34d 101
2026 06 19 07  22 40 27.518   +01 33 06.47  .02381 1.0226 105.2 22.7  34d 101
2026 06 19 08  22 41 01.245   +01 34 50.85  .02398 1.0226 105.1 22.7  34d 101
2026 06 19 09  22 41 34.497   +01 36 33.70  .02415 1.0226 105.0 22.7  34d 101
2026 06 19 10  22 42 07.284   +01 38 15.05  .02432 1.0226 104.9 22.7  34d 101
2026 06 19 11  22 42 39.615   +01 39 54.94  .02448 1.0226 104.8 22.7  34d 101
2026 06 19 12  22 43 11.498   +01 41 33.38  .02465 1.0226 104.7 22.8  34d 101
2026 06 19 13  22 43 42.944   +01 43 10.41  .02482 1.0226 104.7 22.8  34d 101
2026 06 19 14  22 44 13.959   +01 44 46.06  .02499 1.0227 104.6 22.8  34d 101
2026 06 19 15  22 44 44.554   +01 46 20.35  .02516 1.0227 104.5 22.8  34d 101
2026 06 19 16  22 45 14.735   +01 47 53.31  .02533 1.0227 104.4 22.8  34d 101
2026 06 19 17  22 45 44.511   +01 49 24.97  .02550 1.0227 104.3 22.8  34d 101
2026 06 19 18  22 46 13.889   +01 50 55.35  .02567 1.0227 104.2 22.9  34d 101